Weather History for LTBJ - March, 2013

Change the Weather History Date:

Thursday, March 28, 2013

  Actual Average Record
Temperature  
Mean Temperature 58 °F -  
Max Temperature 66 °F 65 °F - ()
Min Temperature 50 °F 44 °F - ()
Degree Days  
Heating Degree Days 7    
Growing Degree Days 8 (Base 50)    
Moisture  
Dew Point 52 °F    
Average Humidity 79    
Maximum Humidity 94    
Minimum Humidity 51    
Precipitation  
Precipitation 0.00 in - - ()
Sea Level Pressure  
Sea Level Pressure 29.95 in    
Wind  
Wind Speed 7 mph ()    
Max Wind Speed 13 mph    
Max Gust Speed -    
Visibility 6.5 miles    
Events Rain , Thunderstorm    
T = Trace of Precipitation, MM = Missing Value Source: Averaged Metar Reports

Daily Weather History Graph

Daily Weather History Graph

Search for Another Location

Airport or City:

Trip Planner

Search our weather history database for the weather conditions in past years. The results will help you decide how hot, cold, wet, or windy it might be!

Date:

Astronomy

Mar. 28, 2013 Rise Set
Actual Time 6:02 AM EET 6:30 PM EET
Civil Twilight 5:36 AM EET 6:57 PM EET
Nautical Twilight 5:05 AM EET 7:28 PM EET
Astronomical Twilight 4:33 AM EET 8:00 PM EET
Moon 7:58 PM EET (3/28) 6:19 AM EET (3/28)
Length of Visible Light 13h 21m
Length of Day
12h 28m
Full, 99% of the Moon is Illuminated
Mar 28
Full
Apr 3
Last Quarter
Apr 10
New
Apr 18
First Quarter
Apr 25
Full

Hourly Weather History & Observations

Time (EET) Temp. Dew Point Humidity Pressure Visibility Wind Dir Wind Speed Gust Speed Precip Events Conditions
12:20 AM 57.2 °F 51.8 °F 82% 29.86 in 6.2 mi SSE 9.2 mph - N/A   Mostly Cloudy
12:50 AM 55.4 °F 51.8 °F 88% 29.86 in 6.2 mi SE 12.7 mph - N/A   Mostly Cloudy
1:20 AM 55.4 °F 50.0 °F 82% 29.86 in 6.2 mi SE 9.2 mph - N/A   Mostly Cloudy
1:50 AM 55.4 °F 50.0 °F 82% 29.86 in 6.2 mi South 4.6 mph - N/A   Mostly Cloudy
2:00 AM 56 °F 51 °F 77% 29.87 in 9 mi South 4.6 mph - -   Partly Cloudy
2:20 AM 55.4 °F 51.8 °F 88% 29.86 in 6.2 mi South 5.8 mph - N/A   Mostly Cloudy
2:50 AM 55.4 °F 50.0 °F 82% 29.86 in 6.2 mi SE 6.9 mph - N/A   Mostly Cloudy
3:20 AM 55.4 °F 50.0 °F 82% 29.86 in 6.2 mi SSE 8.1 mph - N/A   Mostly Cloudy
3:50 AM 55.4 °F 50.0 °F 82% 29.86 in 6.2 mi SSE 5.8 mph - N/A   Mostly Cloudy
4:20 AM 55.4 °F 51.8 °F 88% 29.86 in 6.2 mi SE 6.9 mph - N/A   Mostly Cloudy
4:50 AM 55.4 °F 50.0 °F 82% 29.86 in 6.2 mi SE 5.8 mph - N/A   Mostly Cloudy
5:20 AM 55.4 °F 51.8 °F 88% 29.86 in 6.2 mi SSE 6.9 mph - N/A   Mostly Cloudy
5:33 AM 55.4 °F 51.8 °F 88% 29.86 in 6.2 mi SE 5.8 mph - N/A Rain Light Rain Showers
5:43 AM 55.4 °F 51.8 °F 88% 29.89 in 6.2 mi ESE 5.8 mph - N/A Rain , Thunderstorm Light Thunderstorms and Rain
5:50 AM 55.4 °F 51.8 °F 88% 29.89 in 6.2 mi ESE 4.6 mph - N/A Rain , Thunderstorm Light Thunderstorms and Rain
6:20 AM 55.4 °F 51.8 °F 88% 29.89 in 6.2 mi East 4.6 mph - N/A Rain Light Rain Showers
6:50 AM 55.4 °F 51.8 °F 88% 29.89 in 6.2 mi Variable 2.3 mph - N/A Rain Light Rain Showers
7:20 AM 55.4 °F 53.6 °F 94% 29.89 in 6.2 mi ESE 9.2 mph - N/A   Mostly Cloudy
7:50 AM 57.2 °F 53.6 °F 88% 29.92 in 6.2 mi SE 9.2 mph - N/A   Mostly Cloudy
8:00 AM 56 °F 54 °F 89% 29.92 in 9 mi SE 8.1 mph - -   Partly Cloudy
8:20 AM 57.2 °F 53.6 °F 88% 29.92 in 6.2 mi SE 9.2 mph - N/A   Mostly Cloudy
8:50 AM 59.0 °F 55.4 °F 88% 29.92 in 6.2 mi SE 9.2 mph - N/A   Mostly Cloudy
9:20 AM 62.6 °F 55.4 °F 77% 29.92 in 6.2 mi South 9.2 mph - N/A   Mostly Cloudy
9:50 AM 62.6 °F 55.4 °F 77% 29.92 in 6.2 mi SSW 8.1 mph - N/A   Mostly Cloudy
10:20 AM 62.6 °F 53.6 °F 72% 29.95 in 6.2 mi SW 5.8 mph - N/A   Mostly Cloudy
10:50 AM 62.6 °F 53.6 °F 72% 29.95 in 6.2 mi WSW 9.2 mph - N/A   Mostly Cloudy
11:20 AM 64.4 °F 53.6 °F 68% 29.95 in 6.2 mi West 11.5 mph - N/A   Mostly Cloudy
11:50 AM 64.4 °F 51.8 °F 64% 29.95 in 6.2 mi WSW 11.5 mph - N/A   Mostly Cloudy
12:20 PM 64.4 °F 51.8 °F 64% 29.95 in 6.2 mi WSW 12.7 mph - N/A   Mostly Cloudy
12:50 PM 64.4 °F 51.8 °F 64% 29.95 in 6.2 mi SW 12.7 mph - N/A   Mostly Cloudy
1:20 PM 64.4 °F 51.8 °F 64% 29.95 in 6.2 mi WSW 12.7 mph - N/A   Mostly Cloudy
1:50 PM 66.2 °F 51.8 °F 60% 29.95 in 6.2 mi WSW 12.7 mph - N/A   Mostly Cloudy
2:00 PM 66 °F 52 °F 51% 29.96 in 9 mi WSW 12.7 mph - -   Partly Cloudy
2:20 PM 64.4 °F 50.0 °F 59% 29.95 in 6.2 mi WSW 12.7 mph - N/A   Mostly Cloudy
2:50 PM 64.4 °F 48.2 °F 56% 29.95 in 6.2 mi WSW 9.2 mph - N/A   Mostly Cloudy
3:20 PM 64.4 °F 46.4 °F 52% 29.95 in 6.2 mi WSW 8.1 mph - N/A   Mostly Cloudy
3:50 PM 64.4 °F 48.2 °F 56% 29.98 in 6.2 mi SW 5.8 mph - N/A   Mostly Cloudy
4:20 PM 64.4 °F 50.0 °F 59% 29.98 in 6.2 mi SW 6.9 mph - N/A   Mostly Cloudy
4:50 PM 62.6 °F 53.6 °F 72% 29.98 in 6.2 mi North 8.1 mph - N/A   Mostly Cloudy
5:20 PM 62.6 °F 53.6 °F 72% 30.01 in 6.2 mi NNE 9.2 mph - N/A   Mostly Cloudy
5:50 PM 60.8 °F 55.4 °F 82% 30.01 in 6.2 mi NNE 6.9 mph - N/A   Mostly Cloudy
6:20 PM 60.8 °F 53.6 °F 77% 30.01 in 6.2 mi North 9.2 mph - N/A   Mostly Cloudy
6:50 PM 59.0 °F 53.6 °F 82% 30.01 in 6.2 mi NNE 6.9 mph - N/A   Scattered Clouds
7:20 PM 59.0 °F 51.8 °F 77% 30.01 in - NNE 8.1 mph - N/A   Clear
7:50 PM 57.2 °F 51.8 °F 82% 30.04 in - NNE 5.8 mph - N/A   Clear
8:00 PM 56 °F 52 °F 82% 30.04 in 9 mi NNE 5.8 mph - -  
8:20 PM 55.4 °F 51.8 °F 88% 30.04 in - Variable 1.2 mph - N/A   Clear
8:50 PM 55.4 °F 51.8 °F 88% 30.06 in - Variable 2.3 mph - N/A   Clear
9:20 PM 53.6 °F 50.0 °F 88% 30.06 in - Variable 3.5 mph - N/A   Clear
9:50 PM 53.6 °F 51.8 °F 94% 30.06 in - Variable 2.3 mph - N/A   Clear
10:20 PM 51.8 °F 50.0 °F 94% 30.06 in - Variable 3.5 mph - N/A   Clear
10:50 PM 53.6 °F 50.0 °F 88% 30.06 in - NNE 4.6 mph - N/A   Clear
11:20 PM 50.0 °F 48.2 °F 94% 30.06 in - Variable 1.2 mph - N/A   Clear
11:50 PM 50.0 °F 48.2 °F 94% 30.06 in - Variable 3.5 mph - N/A   Clear